Location: Dzierzno
(50.6159°N, 19.2852°E)
Time: 05:53:48
(UTC+00:00)

Cosmos 44 Rocket - Pass Details

Date: 18 November 2025
Orbit: 637 x 741 km, 65.1° (Epoch: 10 December)

Event Time Altitude Azimuth Distance (km) Brightness Sun altitude
Rises 16:37:58 0° 214° (SW) 2,990 7.3 -16.4°
Reaches altitude 10° 16:40:14 10° 213° (SSW) 2,097 6.4 -16.8°
Maximum altitude 16:45:00 79° 128° (SE) 706 3.2 -17.5°
Enters shadow 16:47:40 27° 45° (NE) 1,321 4.3 -17.9°
